Powrót do katalogu

FENGYUN 1C DEB

LostSSO
NORAD 32219·DEBRIS·🇨🇳 China

Wystrzelony May 10, 1999 z Taiyuan Satellite Launch Center

Loading…

Następne Przeloty (najbliższe 24 godziny)

TLE

NieaktualneSource: Space-Track

Epoka: Oct 18, 2010, 06:18 UTC

1 32219U 99025CVR 10291.26267109  .00000828  00000-0  38835-3 0  9996
2 32219  98.8394 293.4115 0086757 273.6268  90.0703 14.20944452167235

Śledź FENGYUN 1C DEB w czasie rzeczywistym z AllMySat

Download on the App Store